Location: Libas
(9.8833°N, 125.9833°E)
Time: 21:38:47
(UTC+00:00)

Cosmos 2251 Rocket - Pass Details

Date: 27 October 2020
Orbit: 765 x 791 km, 74.0° (Epoch: 26 November)

Event Time Altitude Azimuth Distance (km) Brightness Sun altitude
Rises 19:29:38 0° 191° (S) 3,276 6.8 -28.9°
Reaches altitude 10° 19:32:01 10° 191° (S) 2,348 6.0 -28.3°
Maximum altitude 19:37:22 85° 103° (ESE) 795 3.5 -27.0°
Drops below altitude 10° 19:42:43 10° 14° (NNE) 2,344 6.0 -25.7°
Sets 19:45:06 0° 14° (NNE) 3,270 6.8 -25.1°
